Weather History for Kansas City, MO

Change the Weather History Date:

Sunday, December 30, 2012

  Actual Average Record
Temperature  
Mean Temperature 36 °F -  
Max Temperature 48 °F 38 °F 69 °F (2004)
Min Temperature 23 °F 21 °F 9 °F (2000)
Degree Days  
Heating Degree Days 30    
Moisture  
Dew Point 18 °F    
Average Humidity 50    
Maximum Humidity 78    
Minimum Humidity 32    
Precipitation  
Precipitation 0.00 in - - ()
Sea Level Pressure  
Sea Level Pressure 30.25 in    
Wind  
Wind Speed 6 mph (SSW)    
Max Wind Speed 21 mph    
Max Gust Speed 31 mph    
Visibility 10 miles    
Events      
Averages and records for this station are not official NWS values.
T = Trace of Precipitation, MM = Missing Value Source: NWS Daily Summary

Daily Weather History Graph

Daily Weather History Graph

Search for Another Location

Airport:

Trip Planner

Search our weather history database for the weather conditions in past years. The results will help you decide how hot, cold, wet, or windy it might be!

Date:

Astronomy

Dec. 30, 2012 Rise Set
Actual Time 7:37 AM CST 5:05 PM CST
Civil Twilight 7:07 AM CST 5:35 PM CST
Nautical Twilight 6:33 AM CST 6:08 PM CST
Astronomical Twilight 6:01 AM CST 6:41 PM CST
Moon 7:35 PM CST (12/30) 8:47 AM CST (12/30)
Length of Visible Light 10h 27m
Length of Day
9h 27m
Waning Gibbous, 95% of the Moon is Illuminated
Dec 30
Waning Gibbous
Jan 4
Last Quarter
Jan 11
New
Jan 18
First Quarter
Jan 26
Full

Hourly Weather History & Observations

Time (CST) Temp. Windchill Dew Point Humidity Pressure Visibility Wind Dir Wind Speed Gust Speed Precip Events Conditions
12:54 AM 27.0 °F - 18.0 °F 69% 30.34 in 10.0 mi Calm Calm - N/A   Clear
1:54 AM 27.0 °F - 18.0 °F 69% 30.35 in 10.0 mi Calm Calm - N/A   Clear
2:54 AM 28.0 °F - 18.0 °F 66% 30.34 in 10.0 mi Calm Calm - N/A   Clear
3:54 AM 26.1 °F - 17.1 °F 69% 30.34 in 10.0 mi Calm Calm - N/A   Clear
4:54 AM 23.0 °F - 17.1 °F 78% 30.34 in 10.0 mi Calm Calm - N/A   Clear
5:54 AM 27.0 °F 23.0 °F 17.1 °F 66% 30.33 in 10.0 mi South 3.5 mph - N/A   Clear
6:54 AM 25.0 °F 19.3 °F 16.0 °F 69% 30.34 in 10.0 mi South 4.6 mph - N/A   Clear
7:54 AM 26.1 °F 19.4 °F 17.1 °F 69% 30.34 in 10.0 mi SSW 5.8 mph - N/A   Clear
8:54 AM 30.9 °F 25.2 °F 21.0 °F 67% 30.32 in 10.0 mi South 5.8 mph - N/A   Clear
9:54 AM 36.0 °F 29.6 °F 21.0 °F 55% 30.33 in 10.0 mi South 8.1 mph - N/A   Clear
10:54 AM 43.0 °F 36.8 °F 19.0 °F 38% 30.32 in 10.0 mi SSW 11.5 mph - N/A   Clear
11:54 AM 45.0 °F 38.5 °F 19.0 °F 36% 30.26 in 10.0 mi South 13.8 mph - N/A   Clear
12:54 PM 48.0 °F - 19.0 °F 32% 30.24 in 10.0 mi SSW 17.3 mph 29.9 mph N/A   Clear
1:54 PM 46.9 °F - 18.0 °F 32% 30.19 in 10.0 mi SSW 16.1 mph 28.8 mph N/A   Clear
2:54 PM 46.9 °F - 18.0 °F 32% 30.18 in 10.0 mi SSW 11.5 mph 31.1 mph N/A   Clear
3:54 PM 46.0 °F 38.3 °F 18.0 °F 33% 30.17 in 10.0 mi SSW 20.7 mph 25.3 mph N/A   Clear
4:54 PM 44.1 °F 36.2 °F 18.0 °F 35% 30.15 in 10.0 mi SSW 18.4 mph 25.3 mph N/A   Clear
5:54 PM 43.0 °F 36.0 °F 17.1 °F 35% 30.15 in 10.0 mi SSW 13.8 mph - N/A   Clear
6:54 PM 43.0 °F 35.7 °F 17.1 °F 35% 30.15 in 10.0 mi SSW 15.0 mph 25.3 mph N/A   Clear
7:54 PM 42.1 °F 35.7 °F 18.0 °F 38% 30.15 in 10.0 mi SSW 11.5 mph 20.7 mph N/A   Clear
8:54 PM 39.9 °F 32.5 °F 19.0 °F 43% 30.14 in 10.0 mi SSW 12.7 mph - N/A   Clear
9:54 PM 39.9 °F 33.4 °F 19.0 °F 43% 30.14 in 10.0 mi SW 10.4 mph - N/A   Clear
10:54 PM 37.9 °F 31.5 °F 19.9 °F 48% 30.14 in 10.0 mi SSW 9.2 mph - N/A   Clear
11:54 PM 37.4 °F 29.3 °F 21.2 °F 52% 30.14 in 10.0 mi SW 12.7 mph - N/A   Clear